Orbital Elements at Epoch 2459200.5 (2020-Dec-17.0) TDB
Reference: JPL 23 (heliocentric ecliptic J2000)
Element | Value | Uncertainty (1-sigma) | Units |
e | .1698727112204476 | 3.4253e-08 | |
a | 2.326713060470162 | 8.73e-09 | au |
q | 1.93146800465607 | 8.1907e-08 | au |
i | 3.411047010632903 | 3.6989e-06 | deg |
node | 333.9715807684483 | 6.2638e-05 | deg |
peri | 1.763245818016358 | 6.3749e-05 | deg |
M | 317.6350699143014 | 1.3874e-05 | deg |
tp | 2459353.051562989341 (2021-May-18.55156299) | 5.0466e-05 | TDB |
period | 1296.321333826583 3.55 | 7.2958e-06 1.997e-08 | d yr |
n | .2777089218591532 | 1.563e-09 | deg/d |
Q | 2.721958116284253 | 1.0213e-08 | au |
|
| | Orbit Determination Parameters
Additional Information
|